Miscellaneous Local Product
Issued by NWS North Platte, NE

Home | Current Version | Previous Version | Text Only | Print | Product List | Glossary On
Versions: 1 2 3 4 5 6 7 8 9 10 11 12 13 14 15 16 17 18 19 20 21 22 23 24 25 26 27 28 29 30 31 32 33 34 35 36 37 38 39 40 41 42 43 44 45 46 47 48 49 50
000
AXUS43 KLBF 300710
MISLBF


WESTERN AND NORTH CENTRAL NEBRASKA HOURLY WEATHER ROUNDUP
NATIONAL WEATHER SERVICE NORTH PLATTE NE
100 AM CST FRI JAN 30 2015

***STATIONS NOT REPORTING VARIABLES SUCH AS SKY/WEATHER OR
PRESSURE ARE PROVIDED BY THE NEBRASKA DEPARTMENT OF
ROADS...RAWS...AND APRS NETWORKS...AND ARE NOT UNDER
NATIONAL WEATHER SERVICE QUALITY CONTROL***

...OBSERVATIONS IN AND NEAR THE EASTERN PANHANDLE OF NEBRASKA...

CITY           SKY/WX    TMP DP  RH WIND       PRES   REMARKS
PINE RIDGE     CLEAR     32  15  49 SW8       30.32F WCI  25
CHADRON        CLEAR     32  19  58 SW7       30.31F WCI  26
ALLIANCE       PTCLDY    24  18  77 S3        30.35F
SIDNEY         MOCLDY    28  19  69 S8        30.36F WCI  20
WHITECLAY        N/A     33  16  48 S15         N/A  WCI  23
CRESCENT LAKE    N/A     25  17  70 SE5         N/A  WCI  19
LISCO            N/A     33  16  50 E10         N/A  WCI  25
LEWELLEN         N/A     23  19  85 E5          N/A  WCI  16
$$

...OBSERVATIONS IN NORTH CENTRAL NEBRASKA...

CITY           SKY/WX    TMP DP  RH WIND       PRES   REMARKS
VALENTINE      CLEAR     21  17  84 CALM      30.40F
THEDFORD       CLEAR     24  17  75 CALM      30.42S
AINSWORTH      CLEAR     20  17  86 S6        30.43F WCI  13
O`NEILL        CLEAR     22  20  95 S5        30.49S WCI  15
ORD            CLEAR     17  13  84 CALM      30.48F
BROKEN BOW     CLEAR     17  13  84 CALM      30.45F
BROWNLEE         N/A     25  16  68 S6          N/A  WCI  18
VALENTINE NWR    N/A     20  15  79 CALM        N/A
SPRINGVIEW       N/A     18  15  89 E3          N/A
HALSEY           N/A     25  15  64 S3          N/A
BREWSTER         N/A     22  20  89 CALM        N/A
ROSE             N/A     28  27  96 E6          N/A  WCI  21
NEWPORT          N/A     27  26  96 SE7         N/A  WCI  19
SARGENT          N/A     20  18  90 CALM        N/A
COMSTOCK         N/A     28  23  80 CALM        N/A
CHAMBERS         N/A     19  14  79 CALM        N/A
EWING            N/A     19  17  91 CALM        N/A
$$

...OBSERVATIONS IN SOUTHWEST NEBRASKA AND FAR NORTHEAST COLORADO...

CITY           SKY/WX    TMP DP  RH WIND       PRES   REMARKS
WRAY           FAIR      32  22  67 CALM      30.43S
IMPERIAL       PTCLDY    26  18  71 SW7       30.43F WCI  18
OGALLALA       MOCLDY    23  19  81 SW5       30.41F WCI  17
NORTH PLATTE   PTCLDY    17  12  80 CALM      30.44F
MCCOOK         CLEAR     23  16  74 CALM      30.46F
LEXINGTON      PTCLDY    19  16  88 CALM      30.48S
BRADY            N/A     19  15  82 CALM        N/A
GOTHENBURG       N/A     23  16  74 CALM        N/A
CALLAWAY         N/A     22  18  84 S3          N/A
$$

...NORTH PLATTE AREA...

CITY           SKY/WX    TMP DP  RH WIND       PRES   REMARKS
AIRPORT        PTCLDY    17  12  80 CALM      30.44F
DOWNTOWN         N/A     21  18  86 CALM        N/A
$$

...SOME WEATHER OBSERVATIONS FROM AROUND THE REGION...

CITY           SKY/WX    TMP DP  RH WIND       PRES   REMARKS
DENVER         CLOUDY    38  24  57 S16       30.29F WCI  29
LARAMIE        CLOUDY    28  22  78 S9        30.26F WCI  19
CHEYENNE       CLOUDY    29  20  69 S8        30.28F WCI  21
SCOTTSBLUFF    MOCLDY    28  21  75 E8        30.34F WCI  20
RAPID CITY     CLEAR     23  12  62 SE7       30.29F WCI  15
PIERRE         CLEAR     22  18  85 SE13      30.42F WCI  10
WINNER         FAIR      24  19  81 SE10      30.44F WCI  14
SIOUX FALLS    MOCLDY    19  15  84 CALM      30.52F
OMAHA          CLEAR     24  19  81 N6        30.55S WCI  17
GRAND ISLAND   CLEAR     22  19  89 E7        30.52S WCI  13
KANSAS CITY    CLEAR     26  21  81 N8        30.51F WCI  18
WICHITA        PTCLDY    26  20  77 W3        30.52F
HAYS           MOCLDY    19   9  63 NW3       30.50S
LIBERAL        MOCLDY    32  19  59 CALM      30.51F
GOODLAND       CLOUDY    31  21  66 S10       30.44F WCI  22
$$



USA.gov is the U.S. government's official web portal to all federal, state and local government web resources and services.